This is the latest recevied weather packets stored in our database for station/object KD9DOE. If no packets are shown the sender has not sent any weather packets the latest 10 day(s).
| Time | Temp. | Humidity | Pressure | Rain* | Wind** | Luminosity | Snow |
|---|---|---|---|---|---|---|---|
| 1777385850 | 10° C | 67% | 1011.9 hPa | 0 mm | - | 311 W/m² | - |
| 1777385548 | 10° C | 68% | 1011.9 hPa | 0 mm | - | 114 W/m² | - |
| 1777385245 | 10° C | 69% | 1011.5 hPa | 0 mm | - | 195 W/m² | - |
| 1777384940 | 9.44° C | 69% | 1011.7 hPa | 0 mm | - | 159 W/m² | - |
| 1777384638 | 9.44° C | 69% | 1011.7 hPa | 0 mm | - | 170 W/m² | - |
| 1777384338 | 10° C | 69% | 1011.4 hPa | 0 mm | - | 134 W/m² | - |
| 1777384034 | 10° C | 69% | 1011.4 hPa | 0 mm | - | 147 W/m² | - |
| 1777383730 | 10° C | 71% | 1011.2 hPa | 0 mm | - | 152 W/m² | - |
| 1777383427 | 10° C | 70% | 1011.2 hPa | 0 mm | - | 147 W/m² | - |
| 1777383122 | 10° C | 70% | 1011.2 hPa | 0 mm | - | 140 W/m² | - |
| 1777382820 | 9.44° C | 72% | 1010.8 hPa | 0 mm | - | 164 W/m² | - |
| 1777382515 | 10° C | 71% | 1010.8 hPa | 0 mm | - | 126 W/m² | - |
| 1777382211 | 10° C | 71% | 1010.8 hPa | 0 mm | - | 188 W/m² | - |
| 1777381908 | 10° C | 72% | 1010.8 hPa | 0 mm | - | 116 W/m² | - |
| 1777381607 | 9.44° C | 73% | 1010.7 hPa | 0 mm | - | 106 W/m² | - |
| 1777381303 | 9.44° C | 72% | 1010.6 hPa | 0 mm | - | 111 W/m² | - |
| 1777381000 | 9.44° C | 73% | 1010.5 hPa | 0 mm | - | 155 W/m² | - |
| 1777380697 | 9.44° C | 72% | 1010.4 hPa | 0 mm | - | 95 W/m² | - |
| 1777380393 | 9.44° C | 74% | 1010.5 hPa | 0 mm | - | 106 W/m² | - |
| 1777380089 | 9.44° C | 73% | 1010.5 hPa | 0 mm | - | 70 W/m² | - |
| 1777379785 | 9.44° C | 73% | 1010.5 hPa | 0 mm | - | 64 W/m² | - |
| 1777379481 | 9.44° C | 72% | 1010 hPa | 0 mm | - | 83 W/m² | - |
| 1777379176 | 9.44° C | 72% | 1010 hPa | 0 mm | - | 81 W/m² | - |
| 1777378872 | 9.44° C | 73% | 1009.7 hPa | 0 mm | - | 155 W/m² | - |
| 1777378568 | 9.44° C | 75% | 1009.4 hPa | 0 mm | - | 118 W/m² | - |
* Rain latest hour (hover to see other rain measurements)
** Current wind speed in m/s (hover to see current wind gust speed)